Home > Weather > Germany > Sangerhausen > Past weeks

Flag for Germany Weather past 2 weeks in Sangerhausen, Saxony-Anhalt, Germany

48 °F

Partly sunny.

Feels Like: 44 °F
Forecast: 38 / 47 °F
Wind: 10 mph from Southwest

Location: Erfurt-Bindersleben

Current Time: Dec 2, 2015 at 8:56:24 AM

Latest Report: Dec 2, 2015 at 8:20 AM

Visibility: N/A

Pressure: 30.30 "Hg

Humidity: 76%

Dew point: 41 °F

Location of SangerhausenLocation

Historic Weather in Sangerhausen — Graph


Sangerhausen temperature yesterday

Maximum temperature yesterday: 50 °F (at 2:50 AM)
Minimum temperature yesterday: 43 °F (at 6:50 AM)
Average temperature yesterday: 45 °F

Past Weeks' High & Low Weather Summary

High57 °F (Nov 17, 1:20 PM)100% (Nov 21, 10:20 PM)30.30 "Hg (Nov 21, 10:20 PM)
Low23 °F (Nov 27, 6:50 AM)58% (Nov 18, 11:50 AM)29.39 "Hg (Nov 21, 4:50 AM)
Average40 °F83%29.85 "Hg
* Reported Nov 17 7:20 AM — Dec 2 7:20 AM, Sangerhausen, Weather by CustomWeather, © 2015

Note: Actual official high and low records may vary slightly from our data, if they occured in-between our weather recording intervals... More about our weather records


Sangerhausen weather history for previous 24 hours

Time TempWeatherWind HumidityBarometerVisibility
7:20 AM
Wed, Dec 2
48 °FPassing clouds.12 mph82%30.30 "HgN/A
6:50 AM48 °FPassing clouds.14 mph82%30.27 "HgN/A
6:20 AM48 °FPassing clouds.16 mph82%30.27 "HgN/A
5:50 AM48 °FPassing clouds.10 mph82%30.30 "HgN/A
4:20 AM50 °FPassing clouds.15 mph82%30.27 "HgN/A
3:20 AM50 °FPassing clouds.15 mph88%30.27 "HgN/A
2:50 AM50 °FPassing clouds.12 mph88%30.27 "HgN/A
2:20 AM52 °FPassing clouds.20 mph82%30.27 "HgN/A
1:50 AM52 °FPassing clouds.14 mph82%30.24 "HgN/A
1:20 AM50 °FPassing clouds.13 mph94%30.24 "HgN/A
12:20 AM50 °FPassing clouds.14 mph94%30.24 "HgN/A
11:50 PM
Tue, Dec 1
50 °FPassing clouds.14 mph94%30.24 "HgN/A
10:50 PM48 °FPassing clouds.12 mph94%30.24 "HgN/A
10:20 PM48 °FPassing clouds.8 mph94%30.24 "HgN/A
9:50 PM45 °FPassing clouds.9 mph100%30.24 "HgN/A
9:20 PM45 °FPassing clouds.9 mph93%30.24 "Hg4 mi
8:50 PM43 °FPassing clouds.7 mph100%30.24 "Hg3 mi
8:20 PM43 °FPassing clouds.5 mph100%30.24 "Hg4 mi
7:50 PM43 °FPassing clouds.5 mph100%30.24 "HgN/A
7:20 PM43 °FPassing clouds.7 mph100%30.24 "HgN/A
6:50 PM43 °FPartly cloudy.7 mph93%30.24 "HgN/A
6:20 PM43 °FPartly cloudy.9 mph93%30.24 "HgN/A
5:50 PM45 °FLight rain. Passing clouds.12 mph87%30.24 "HgN/A
5:20 PM43 °FPassing clouds.7 mph93%30.21 "HgN/A
4:50 PM43 °FLight rain. Passing clouds.8 mph93%30.24 "HgN/A
4:20 PM43 °FLight rain. Mostly cloudy.10 mph93%30.21 "HgN/A
3:50 PM45 °FLight rain. More clouds than sun.10 mph87%30.21 "HgN/A
3:20 PM45 °FMore clouds than sun.8 mph87%30.21 "HgN/A
2:50 PM45 °FMore clouds than sun.8 mph81%30.21 "HgN/A
2:20 PM45 °FPartly sunny.9 mph81%30.21 "HgN/A
1:50 PM45 °FPartly sunny.9 mph76%30.21 "HgN/A
1:20 PM45 °FBroken clouds.9 mph76%30.18 "HgN/A
12:50 PM45 °FPartly sunny.8 mph76%30.18 "HgN/A
12:20 PM45 °FPartly sunny.9 mph76%30.18 "HgN/A
11:50 AM43 °FPartly sunny.10 mph81%30.18 "HgN/A
11:20 AM43 °FPartly sunny.10 mph81%30.18 "HgN/A
10:50 AM43 °FPartly sunny.10 mph81%30.18 "HgN/A
10:20 AM43 °FPartly sunny.12 mph81%30.15 "HgN/A
9:50 AM43 °FScattered clouds.13 mph81%30.15 "HgN/A
Weather by CustomWeather, © 2015

See weather overviewHow to use our weather pages